GFSGBSN_prec_cloud_114.txt.gz
Cloud_Cover
100 100 100 100 100 100 100 100 100 100 100 100 100 89 98 100 76 100 100 100 100 100 100 100 100 100 100 100 100 86 100 100 100 100 100 100 100 100 100 100 84 5 5 15 10 5 8
100 100 100 100 100 100 100 100 100 100 100 100 100 100 95 100 81 100 100 100 100 100 100 100 100 100 96 100 100 100 100 99 100 100 99 100 100 12 12 67 50 76 97 96 28 6 18
100 100 100 100 100 100 100 100 100 100 100 100 100 99 100 100 82 75 100 100 100 100 100 100 100 100 100 100 100 100 100 100 100 94 100 83 100 100 100 100 100 100 56 5 5 1 0
100 100 100 100 100 100 100 100 100 100 100 100 100 100 100 100 98 91 72 100 100 100 100 100 100 100 100 100 100 100 100 100 100 83 84 94 51 95 99 98 74 4 4 3 3 0 0
100 100 100 100 100 100 100 100 100 100 100 100 100 100 100 100 100 96 100 100 100 100 100 100 100 100 100 100 100 100 100 98 94 100 100 100 97 91 38 1 1 3 1 0 0 5 3
100 99 100 100 100 100 100 100 100 100 100 100 100 100 100 100 100 100 100 100 100 100 100 100 98 100 100 84 79 100 100 100 100 100 83 39 54 6 6 5 0 0 2 0 0 8 99
100 99 100 100 100 100 100 100 100 100 100 100 100 100 100 100 100 100 99 100 100 66 100 24 8 63 59 31 55 5 5 37 52 16 5 0 0 5 0 5 7 4 5 1 0 5 21
88 86 70 100 100 100 100 100 100 100 100 100 100 100 100 82 12 100 91 100 100 95 12 4 5 4 24 87 2 5 41 3 8 4 5 7 2 2 5 5 37 42 25 22 53 5 5
100 82 16 5 52 100 100 100 100 100 100 100 100 100 100 100 27 100 100 100 100 100 29 5 4 16 8 1 13 16 25 4 20 6 27 70 4 5 50 45 74 24 47 4 15 5 39
58 5 26 59 8 30 100 100 100 100 100 100 100 100 100 96 93 100 100 100 100 100 100 3 1 3 11 5 9 43 89 90 57 58 95 18 4 28 73 14 43 98 12 82 99 100 88
46 23 51 72 72 32 100 74 100 100 99 100 100 100 100 99 97 100 97 100 100 100 42 0 0 0 0 2 5 4 3 5 5 4 68 4 36 12 48 7 58 97 99 93 5 9 85
99 100 65 88 54 70 97 100 100 100 100 100 100 100 100 100 100 99 100 100 100 100 51 0 1 2 5 5 7 5 5 5 5 5 5 25 8 90 93 27 97 94 7 8 46 78 88
83 90 93 97 100 88 88 100 100 100 100 100 100 100 100 100 100 100 100 100 100 73 15 4 14 5 5 5 5 5 4 4 3 70 38 23 19 6 100 79 69 16 53 87 50 94 84
36 12 5 88 100 94 28 100 100 100 100 100 100 100 100 100 100 100 100 100 99 11 51 100 98 84 15 52 5 57 70 6 73 80 88 100 23 87 100 61 48 99 100 100 100 100 100
29 5 5 5 99 100 94 100 100 100 100 100 100 100 100 100 100 100 100 100 97 78 90 90 100 100 100 100 64 44 45 28 44 96 96 98 96 22 100 97 100 100 92 100 100 95 91
91 26 5 5 5 22 88 100 100 100 100 100 98 100 100 100 100 100 100 100 55 100 100 100 100 100 100 100 100 97 87 38 5 21 99 82 88 100 99 82 70 100 95 92 100 100 97
7 40 11 5 11 5 36 62 100 100 100 100 100 100 100 100 100 100 100 100 100 75 70 65 87 100 100 100 100 60 85 70 5 44 100 100 93 63 92 71 100 100 100 76 100 100 100
5 5 5 5 5 5 3 4 65 18 100 100 100 100 100 100 100 100 100 100 30 68 10 46 10 100 100 64 68 100 86 100 12 100 89 79 100 100 78 100 79 100 56 87 100 100 100
4 5 5 4 5 4 4 1 97 18 100 100 100 100 100 100 100 100 89 100 98 99 13 98 54 98 97 100 86 100 96 12 100 100 97 75 100 98 100 100 97 42 98 100 100 100 100
4 4 1 2 0 0 1 3 58 34 100 100 100 100 100 100 100 74 89 96 100 69 14 100 100 100 100 86 89 46 84 53 100 100 88 100 99 99 100 100 100 100 100 100 100 100 100
5 1 3 4 1 0 4 0 88 90 100 100 100 100 46 95 100 100 100 97 96 98 28 100 100 100 100 95 95 100 100 88 100 100 100 100 100 100 100 100 100 100 100 100 98 100 96
99 5 5 4 0 0 8 66 100 80 100 100 100 100 100 100 100 100 100 92 100 98 100 100 100 100 100 100 100 100 100 100 100 100 100 100 100 100 100 100 100 89 100 100 100 100 100
100 100 86 5 4 0 5 96 100 100 100 100 100 100 100 33 69 100 98 100 96 100 98 100 100 100 100 100 100 100 100 100 97 92 83 100 73 93 100 99 100 75 93 71 100 100 99
49 8 12 10 5 42 24 100 100 100 100 100 100 100 100 100 100 92 98 100 100 100 100 100 100 100 100 100 100 100 100 91 100 96 100 100 78 35 83 85 25 83 44 100 100 100 100
6 5 6 5 99 5 36 68 100 100 100 100 100 100 100 99 93 100 100 100 100 100 100 100 100 100 100 100 100 100 100 100 100 100 100 100 98 100 40 84 100 98 100 100 100 100 76
100 100 65 59 99 100 100 100 100 100 100 100 100 100 100 100 100 100 100 100 100 100 100 98 98 100 99 100 100 100 100 87 98 100 100 100 100 100 99 100 71 73 93 100 80 49 70
100 100 100 100 100 100 100 100 100 100 100 100 100 100 100 100 100 100 100 100 100 100 74 100 100 100 100 100 100 100 100 100 100 100 100 100 100 100 59 96 89 78 54 88 93 58 100
100 100 100 100 100 100 100 100 100 100 100 100 100 100 100 100 100 100 100 100 100 99 68 82 100 100 100 100 100 100 100 100 100 100 100 100 100 84 90 100 97 28 80 78 90 98 80
100 100 100 100 100 96 94 100 100 100 100 100 100 100 100 100 100 100 100 100 100 92 55 80 99 100 100 100 100 100 100 100 100 100 100 79 56 99 96 98 99 99 99 100 98 100 100

GFSGBSN_prec_cloud_120.txt.gz
Cloud_Cover
89 98 66 100 99 100 100 100 100 100 100 100 100 100 100 96 100 100 98 100 100 100 100 100 100 100 100 100 100 75 92 99 20 100 91 95 99 59 100 100 87 18 53 58 100 100 100
98 24 80 80 100 98 42 91 100 100 100 100 100 100 100 100 100 100 75 70 100 100 99 82 100 98 100 100 95 15 88 100 46 18 83 100 88 54 100 100 95 98 98 100 100 100 100
100 100 100 100 100 100 100 100 100 100 51 78 100 77 100 94 52 96 81 42 65 54 98 85 89 92 100 99 100 5 6 100 94 26 75 100 100 99 25 100 64 98 100 100 100 100 100
100 24 90 100 99 94 100 100 100 100 100 100 93 91 66 98 81 69 41 5 31 92 93 57 87 93 99 90 22 79 91 100 100 100 98 71 100 100 100 79 100 100 100 90 96 82 100
100 99 97 80 11 85 93 100 91 100 100 100 100 100 89 59 92 98 46 44 83 49 100 100 64 89 100 100 100 100 87 100 100 100 100 100 100 100 90 100 100 80 2 6 6 66 65
84 99 100 84 64 53 52 11 31 41 93 100 100 100 100 93 100 100 100 100 99 100 99 100 96 100 49 100 100 100 100 100 100 100 100 100 100 100 100 100 100 40 14 55 35 15 4
100 100 100 100 100 100 100 100 100 99 82 89 97 17 40 6 5 55 18 70 49 39 98 70 26 68 100 96 82 100 100 100 100 100 100 72 91 100 100 47 65 5 5 2 5 0 0
100 100 100 100 100 100 100 100 100 100 100 83 62 100 19 99 73 46 99 20 100 68 46 80 98 72 100 37 69 100 75 94 100 98 73 95 5 6 5 5 6 2 5 5 4 3 3
100 100 100 100 100 100 100 100 100 100 100 92 91 100 100 93 82 95 95 97 12 23 27 100 100 49 100 100 100 100 100 92 100 100 100 45 42 10 5 5 5 5 10 5 3 3 5
100 100 100 100 100 100 100 100 100 100 100 100 100 100 100 100 98 82 100 100 90 100 96 100 97 93 100 100 100 100 76 20 5 13 44 29 78 6 9 5 7 5 11 5 5 5 4
100 100 100 100 100 100 100 100 100 100 100 100 100 100 42 100 100 100 100 100 100 85 7 48 74 7 98 98 60 100 100 83 35 5 5 5 3 2 5 10 5 5 13 97 7 5 23
100 100 100 100 100 100 100 100 100 100 100 100 100 100 100 100 91 100 100 100 100 59 31 41 20 5 5 65 100 100 100 100 100 100 7 5 2 1 0 1 4 34 93 96 23 31 28
100 100 100 100 100 100 99 100 100 100 100 100 100 100 100 100 100 100 100 100 100 34 41 100 54 5 60 94 70 87 87 100 100 100 100 28 22 18 5 5 18 86 82 92 65 86 44
100 100 100 100 100 100 100 100 100 100 100 100 100 100 100 100 100 100 100 100 86 37 78 100 51 76 95 27 17 22 77 53 99 19 5 4 5 5 5 0 5 5 96 96 95 59 1
100 100 100 100 100 100 100 100 100 100 100 100 100 100 100 100 100 100 100 100 20 100 100 100 100 99 63 78 6 5 25 82 15 5 12 8 3 0 0 0 0 0 4 5 66 24 55
98 100 100 100 100 100 100 100 100 100 100 100 100 100 100 100 100 100 100 79 64 100 100 100 100 100 98 100 54 6 2 5 5 5 92 5 8 1 2 0 0 1 4 6 78 71 72
100 58 100 100 100 100 100 95 100 100 100 100 100 100 100 100 100 100 100 100 100 100 90 85 45 79 92 100 98 100 33 5 6 76 16 99 72 3 0 0 0 4 5 5 13 88 72
99 100 100 100 100 100 100 100 100 100 100 92 98 96 11 100 100 100 100 99 98 98 100 100 16 8 68 85 100 77 5 9 92 78 69 99 100 39 3 5 0 4 7 45 39 45 46
100 100 100 100 100 100 100 100 100 100 100 100 98 59 35 100 94 93 47 15 18 8 40 32 67 100 100 12 38 23 12 47 99 83 42 100 100 21 50 20 5 19 81 100 100 100 100
100 100 100 100 92 100 99 100 100 100 100 100 94 100 100 100 100 27 38 20 38 40 68 89 70 39 100 79 36 100 38 48 30 63 92 100 99 95 64 53 59 75 100 100 100 100 99
98 65 81 93 100 100 100 96 100 100 88 100 100 100 25 92 100 100 99 58 98 95 53 62 27 5 14 5 5 22 77 81 56 87 98 100 100 100 100 92 88 95 100 100 100 100 65
100 99 100 100 100 100 100 100 100 100 100 100 100 100 100 88 5 44 100 5 84 5 93 73 5 5 5 5 5 12 100 6 100 100 100 100 100 90 99 100 55 99 100 99 94 82 100
100 75 74 97 81 86 94 100 100 87 63 48 79 66 100 100 88 94 100 82 38 61 67 5 35 78 5 2 68 21 100 99 93 100 99 100 100 100 16 100 62 100 100 100 97 90 28
100 100 100 74 59 89 26 27 4 13 34 6 98 57 100 100 100 100 34 77 99 41 5 6 75 76 8 5 24 100 100 100 100 100 100 100 100 100 96 100 94 61 29 100 78 40 11
100 97 99 76 77 77 48 5 5 5 5 13 57 99 100 100 75 100 100 67 94 91 78 88 85 77 100 62 100 100 100 100 100 100 100 100 100 52 66 42 20 9 100 73 39 38 100
99 99 100 100 100 100 98 100 70 5 5 5 55 81 100 100 22 5 54 100 78 26 74 100 100 100 100 100 100 100 100 100 100 100 81 100 100 78 43 91 63 100 30 39 59 100 100
5 5 5 37 23 94 93 100 94 48 8 19 78 69 100 100 64 77 5 39 45 100 100 100 100 100 99 100 100 100 100 100 100 96 100 100 100 100 100 100 100 97 94 100 100 90 26
100 100 86 5 5 13 97 100 100 61 90 81 99 100 94 100 97 71 8 56 48 100 100 100 100 100 100 100 100 100 100 100 100 100 100 100 100 100 100 100 94 92 63 62 48 7 43
100 100 100 97 10 16 17 5 5 5 7 77 76 100 100 100 100 100 27 5 6 72 68 100 100 100 100 100 100 100 100 100 100 100 100 100 100 100 100 100 100 70 53 60 78 78 66

GFSGBSN_prec_cloud_123.txt.gz
Cloud_Cover
100 100 100 100 100 100 100 100 100 100 71 24 65 44 85 98 68 50 100 100 100 36 66 30 75 98 100 100 24 87 80 59 18 55 83 5 39 5 5 96 16 5 5 43 100 100 100
100 100 100 100 96 78 78 83 100 99 19 5 57 53 73 86 24 26 100 100 100 100 92 99 100 100 100 100 12 59 37 62 99 6 48 14 5 5 5 93 34 5 5 18 95 100 94
100 100 100 100 100 100 100 100 60 100 100 80 5 96 7 97 100 73 24 8 100 77 100 100 100 100 100 90 97 27 41 69 42 66 73 50 6 5 3 6 5 42 11 100 100 35 12
100 100 100 100 100 100 100 100 94 100 89 100 100 100 85 96 5 22 96 36 99 91 100 100 85 98 100 65 63 32 36 97 100 70 93 22 99 7 8 5 5 70 100 86 100 98 81
100 100 100 100 100 100 94 100 91 96 47 86 88 100 100 83 88 70 48 99 98 95 100 100 79 73 100 100 99 50 100 100 100 100 100 70 5 5 39 100 100 100 100 100 100 100 100
100 100 100 100 100 100 99 74 64 89 78 86 74 25 58 73 68 34 66 87 100 100 100 100 100 100 100 100 100 100 100 100 100 100 100 100 99 100 100 77 5 50 41 100 100 100 58
100 99 82 100 100 100 96 100 100 100 100 6 5 5 5 5 5 5 5 29 40 10 98 100 100 100 100 86 100 100 100 98 100 100 100 100 100 100 100 100 23 5 5 10 46 12 8
100 100 100 99 97 99 100 87 100 100 100 10 55 38 34 14 41 23 8 29 26 69 44 71 99 100 80 5 28 100 9 16 100 100 100 100 41 100 100 100 100 100 100 78 5 5 6
100 100 100 100 100 100 100 100 100 100 100 100 100 100 100 100 14 31 70 5 5 16 48 63 5 15 13 8 58 100 49 100 100 100 100 100 100 100 100 100 100 100 94 98 14 30 5
100 100 100 100 100 100 100 100 100 100 100 100 100 82 72 74 99 99 88 5 5 90 51 71 50 7 4 23 5 50 100 100 100 100 100 100 100 100 100 100 100 100 100 53 12 9 5
100 100 100 100 100 100 100 100 100 100 100 100 99 19 89 9 78 100 91 59 24 46 5 57 64 64 27 17 6 59 100 27 96 100 100 100 100 100 100 82 17 92 97 78 14 5 5
100 100 100 100 100 100 100 100 100 100 100 100 100 100 100 95 100 100 83 100 100 100 5 7 31 16 30 66 88 76 80 79 100 100 100 100 10 34 96 100 100 100 97 15 8 22 86
100 100 100 100 100 100 100 100 100 100 100 100 100 100 100 87 100 100 100 100 100 34 28 34 5 28 29 41 68 68 49 99 100 100 100 100 100 94 12 29 41 8 35 54 64 20 10
100 100 100 100 100 100 100 100 100 100 100 100 99 91 100 100 100 100 100 100 93 6 59 98 92 5 71 98 93 71 29 88 100 100 100 100 100 100 100 98 98 13 12 26 14 77 5
100 100 100 100 100 100 100 100 100 100 100 100 100 99 100 100 100 100 100 100 100 99 95 100 100 100 99 82 93 32 9 19 78 100 100 97 100 100 100 100 64 20 5 5 65 34 17
100 100 100 100 100 100 100 100 100 100 100 100 100 100 100 100 100 100 100 100 32 100 99 100 100 100 100 100 86 18 5 6 38 96 100 100 55 50 100 98 84 7 5 21 53 83 72
100 98 100 93 100 99 100 100 100 100 100 100 100 100 100 100 100 100 100 100 100 100 93 100 100 100 100 100 99 100 8 4 5 10 71 33 67 62 20 86 50 9 5 5 55 66 5
85 5 34 61 99 100 100 100 72 100 100 92 100 100 100 100 100 100 87 100 100 100 100 100 100 100 100 100 100 100 100 60 46 99 86 95 81 31 64 94 65 96 27 12 100 11 40
100 92 100 100 100 100 100 100 100 99 100 100 100 90 36 100 89 100 97 96 44 85 24 84 100 98 100 100 100 100 100 100 100 100 100 72 26 74 5 99 43 100 97 79 88 29 91
100 100 100 100 100 100 100 100 100 100 100 100 100 98 100 100 91 28 36 86 61 5 17 54 23 85 99 96 88 41 97 100 100 100 100 82 6 5 5 91 62 97 92 99 100 97 25
100 100 100 100 100 100 100 100 100 100 100 100 100 92 92 100 96 96 97 17 75 85 61 83 55 5 5 91 12 5 17 93 89 77 24 100 50 63 45 53 100 100 99 100 100 65 99
100 100 100 100 100 100 100 100 100 100 100 100 100 98 100 86 57 68 100 82 5 3 23 5 45 3 66 43 5 5 4 7 5 93 75 100 71 54 100 100 100 61 27 65 100 85 46
100 100 100 100 100 100 100 100 100 100 100 100 96 67 84 35 98 100 41 43 29 81 28 5 29 54 10 1 5 5 55 60 91 14 100 100 100 100 95 98 100 99 83 73 94 28 9
100 100 100 100 100 100 100 100 100 100 100 100 100 100 100 87 96 100 99 100 83 29 64 100 76 5 0 2 6 58 55 5 83 94 100 100 100 100 100 100 76 30 30 98 18 36 88
100 100 100 100 100 100 100 100 100 100 100 100 100 100 100 100 100 100 100 100 100 94 99 39 31 63 92 98 100 100 83 96 64 100 100 100 100 100 100 98 14 9 100 34 5 22 86
56 76 67 100 100 100 100 100 100 100 100 100 93 84 69 100 23 76 90 100 100 100 91 50 93 48 100 100 100 98 94 16 97 98 100 100 100 100 100 81 8 100 96 34 97 94 5
54 32 52 50 90 85 94 100 67 16 5 42 23 5 98 100 78 61 5 5 100 100 100 99 52 100 100 100 100 100 99 85 98 69 94 100 100 100 100 84 50 100 100 100 65 5 5
5 100 100 100 83 54 9 14 92 26 5 86 85 60 30 73 35 99 67 35 100 80 72 100 100 100 100 100 100 98 100 100 60 90 100 100 100 100 100 100 100 100 100 94 29 18 6
89 78 5 5 13 36 100 87 47 100 87 100 82 44 5 88 80 97 52 5 83 74 99 100 100 100 100 100 100 100 100 100 99 100 100 100 100 100 100 100 100 100 100 100 30 11 91

GFSGBSN_prec_cloud_129.txt.gz
Cloud_Cover
100 100 100 100 100 100 100 100 100 100 100 100 100 100 100 100 100 100 68 81 8 54 93 100 100 100 70 26 13 27 28 94 86 33 5 5 7 33 58 88 88 96 41 25 5 11 5
100 100 100 100 100 100 100 100 100 100 100 100 100 100 100 100 100 98 100 78 95 93 100 100 100 78 33 27 6 5 87 70 84 46 5 4 14 5 8 5 14 29 97 67 9 21 18
100 100 100 100 100 100 85 100 82 99 100 100 100 100 100 100 100 100 98 97 97 98 95 100 100 100 97 53 6 5 100 100 91 15 5 0 12 44 5 5 5 15 37 5 5 17 45
100 100 100 100 100 100 95 100 100 98 100 100 100 100 100 100 100 100 100 91 97 100 99 99 97 100 100 14 100 100 100 100 39 6 5 5 1 2 5 5 5 5 6 27 6 5 5
100 100 100 100 100 100 100 79 100 100 90 100 100 100 99 100 71 100 100 72 18 100 100 100 100 100 100 18 51 100 100 87 58 52 6 4 5 2 13 13 10 5 25 100 100 37 22
100 100 100 100 100 100 100 100 100 100 90 99 100 100 100 100 100 100 98 100 98 62 100 100 100 100 100 94 5 32 71 5 6 6 5 5 5 5 37 19 4 37 29 13 19 33 5
100 100 100 100 100 100 100 100 100 100 100 100 100 100 65 100 100 100 45 100 100 100 100 100 100 100 100 60 15 100 79 100 98 26 28 22 11 5 5 30 49 5 8 5 59 60 9
100 100 100 100 100 100 100 100 93 99 100 100 98 91 100 80 100 100 100 100 90 100 100 100 100 100 100 99 96 55 78 6 51 83 100 82 5 5 5 5 5 5 5 5 5 6 10
100 100 100 100 100 100 100 100 100 100 100 100 100 100 100 100 100 100 82 85 100 80 58 100 100 100 84 8 74 81 66 100 86 87 33 7 50 38 5 5 5 4 4 5 5 13 29
100 100 100 100 100 100 100 100 100 100 100 100 100 95 100 100 94 51 94 72 19 64 70 100 100 100 91 70 8 96 90 65 100 100 100 100 100 32 10 84 23 5 56 12 5 5 60
100 100 100 100 100 100 100 100 100 100 100 100 100 100 100 100 100 100 100 72 40 79 43 66 100 64 99 100 99 98 77 67 100 100 100 74 96 98 100 100 100 100 100 100 100 84 33
100 100 100 100 100 100 100 100 100 100 100 100 100 100 100 100 100 100 100 100 97 84 81 70 88 47 73 94 100 100 100 100 100 100 100 100 92 75 99 100 100 100 100 100 100 74 31
100 100 100 100 100 100 100 100 100 100 100 100 100 100 100 100 100 100 100 100 96 17 93 6 100 100 100 100 100 100 62 98 100 100 100 100 100 100 100 63 77 97 100 100 100 98 82
100 100 100 100 100 100 100 100 100 100 100 100 100 100 100 100 100 100 100 100 87 100 100 100 100 60 99 33 99 100 66 50 72 77 97 100 100 100 100 99 100 100 100 100 100 47 37
100 100 100 100 100 100 100 100 100 100 100 100 100 100 100 100 100 100 100 99 30 97 86 95 52 88 100 100 66 66 5 5 53 52 88 87 89 100 100 100 99 100 100 100 100 100 95
87 100 95 55 100 100 100 100 100 100 100 100 100 100 100 100 100 100 100 100 95 95 45 8 99 100 100 100 100 100 100 12 78 47 100 88 21 96 100 99 100 100 100 100 100 100 84
100 100 98 100 100 82 93 100 100 100 100 100 100 100 100 100 100 100 100 100 100 100 100 100 100 100 100 100 100 100 100 100 85 94 100 100 96 76 97 100 100 100 100 100 100 100 100
100 100 100 100 100 100 100 100 96 100 100 100 92 100 100 100 100 100 100 100 100 100 100 100 100 100 100 100 100 100 94 100 100 100 100 100 100 14 95 100 100 100 100 100 100 100 54
100 100 100 100 100 100 100 100 100 100 99 99 100 100 100 100 100 97 100 100 100 100 100 100 100 100 100 100 94 78 100 100 100 100 100 100 91 9 100 78 100 100 100 100 100 100 32
84 100 100 100 100 100 100 100 100 100 100 100 100 100 100 100 41 33 83 67 100 100 100 57 60 90 100 100 48 69 100 100 100 100 100 100 44 98 57 91 100 100 100 100 100 94 87
89 56 100 100 100 100 100 100 100 100 100 100 100 100 80 100 100 70 8 19 46 20 12 5 5 12 13 5 6 10 98 100 100 100 100 100 98 100 29 86 100 88 52 100 100 100 100
93 63 100 100 100 100 100 100 100 100 100 100 100 100 88 18 24 84 34 5 6 42 94 30 6 1 0 1 1 0 3 5 4 6 8 94 100 100 31 100 100 100 100 100 100 100 92
29 6 5 87 100 100 100 100 100 100 100 100 100 100 97 100 98 92 78 100 86 35 42 83 50 20 9 67 41 26 16 22 5 5 5 90 100 98 14 82 84 96 86 100 90 91 78
95 58 14 5 90 100 100 100 100 100 100 100 100 100 100 100 99 100 100 100 100 92 43 100 98 86 100 100 100 85 54 7 5 5 5 35 100 100 86 98 94 5 37 67 100 100 100
60 16 85 98 100 100 100 100 100 100 100 100 100 100 100 100 100 100 100 100 100 100 100 100 100 100 100 100 100 96 30 35 8 5 3 5 45 100 99 94 8 0 4 74 100 100 100
100 100 100 100 100 100 100 100 100 100 100 100 100 100 100 100 70 100 100 100 100 100 100 100 100 100 100 100 100 99 100 95 38 85 38 100 100 100 100 100 75 1 5 60 74 6 97
100 100 100 100 100 100 100 100 100 100 100 100 100 100 100 100 100 96 100 100 100 100 100 100 100 100 100 100 100 99 87 96 39 35 100 100 100 100 100 100 45 72 30 96 96 68 89
100 100 95 100 100 100 71 97 100 100 100 100 100 100 100 100 100 100 100 100 100 100 100 100 100 100 100 100 100 60 28 95 100 62 88 100 100 100 100 100 96 100 100 91 78 82 53
100 100 96 84 100 100 100 100 100 100 100 100 100 98 100 95 87 100 100 100 100 100 100 100 100 100 100 100 100 96 100 90 15 65 100 100 100 100 100 68 100 100 100 100 78 80 100

GFSGBSN_prec_cloud_132.txt.gz
Cloud_Cover
100 100 100 100 100 100 100 100 93 89 100 96 96 100 100 100 100 98 99 100 100 100 100 100 100 100 94 59 19 49 95 96 100 88 53 5 5 5 13 47 44 56 10 4 5 6 55
100 100 100 100 100 100 100 100 98 100 100 65 51 99 100 73 95 100 100 100 100 100 99 89 100 100 100 66 40 5 89 20 100 84 5 5 5 5 98 36 48 23 5 1 4 3 5
100 100 100 100 100 100 100 100 100 100 93 90 72 100 56 99 98 100 100 100 100 100 100 100 100 98 81 70 15 54 5 5 13 8 8 5 5 8 45 82 5 5 4 0 1 2 0
100 100 100 100 100 100 100 100 99 100 100 93 100 100 99 100 97 100 100 100 100 100 100 100 100 100 100 100 66 50 22 98 30 17 50 34 18 48 96 98 76 36 5 5 4 0 0
100 100 100 100 100 100 100 100 100 100 100 100 100 100 81 72 99 100 100 100 100 100 100 100 100 98 100 100 100 100 6 43 100 97 96 74 17 5 3 7 5 74 73 18 2 5 4
100 100 100 100 100 100 100 100 100 100 100 100 100 100 100 100 95 94 84 92 100 100 59 95 100 100 100 95 95 89 22 45 100 100 100 83 4 5 5 4 12 24 6 5 5 12 19
100 100 100 100 100 100 100 100 100 100 100 100 100 100 100 100 100 100 100 100 100 100 100 100 100 100 100 100 40 78 100 100 100 100 100 100 60 23 5 27 96 24 5 5 5 5 5
100 100 100 100 100 100 100 100 100 95 100 100 100 99 99 99 98 100 99 100 100 100 88 99 100 98 100 100 100 100 32 16 100 97 100 80 25 17 53 9 47 31 5 5 4 5 5
100 100 100 100 100 100 97 100 100 100 98 90 100 100 100 10 87 21 87 79 87 92 99 100 100 100 37 99 100 100 42 71 61 100 100 100 52 100 100 47 35 5 11 9 5 3 5
100 100 100 100 100 100 100 100 100 100 100 100 100 100 100 100 98 97 99 97 100 17 41 93 100 100 72 81 31 100 100 100 100 100 100 100 100 69 100 75 9 64 26 26 6 5 5
100 100 100 100 100 100 100 100 100 100 100 100 100 100 100 100 100 100 100 73 59 73 91 82 100 90 95 100 100 100 100 100 100 100 100 100 100 100 95 94 100 100 100 100 100 100 23
100 100 100 100 100 100 100 100 100 100 100 100 100 100 100 100 100 100 100 100 100 90 100 94 13 33 13 100 100 100 100 100 100 100 100 100 100 100 100 100 100 99 18 97 100 100 100
100 100 100 100 100 100 100 100 100 100 100 100 100 100 100 100 100 100 100 100 100 100 100 100 86 5 5 17 66 100 100 100 100 100 100 100 100 100 100 100 100 21 9 34 21 65 88
100 100 100 100 100 100 100 100 100 100 100 100 100 100 100 100 100 100 100 100 99 100 92 100 76 21 80 16 24 94 100 97 100 100 100 100 100 100 100 98 96 99 12 8 5 5 54
100 100 100 100 100 100 100 100 100 100 100 100 100 100 100 100 100 100 100 100 96 73 91 100 100 100 100 90 73 98 94 99 100 100 100 100 100 91 91 100 100 87 46 32 55 57 66
100 100 100 100 100 100 100 100 100 100 100 100 100 100 100 100 100 100 100 100 100 90 99 100 100 100 97 94 100 95 94 95 100 100 100 90 100 78 100 99 100 100 100 92 98 76 98
100 100 94 72 100 99 100 100 100 100 100 100 100 100 100 100 100 100 100 100 100 100 100 100 100 100 100 99 51 50 94 98 100 99 100 100 19 21 45 99 100 69 100 100 100 100 100
100 100 100 100 100 100 75 100 100 100 100 100 100 100 100 100 100 100 100 100 100 100 100 100 100 100 100 100 100 100 99 100 100 100 100 100 74 39 8 86 100 95 62 99 100 100 100
100 100 98 100 100 100 100 100 100 100 100 100 100 100 100 100 100 100 100 100 100 100 100 100 100 100 100 100 100 100 100 100 100 100 100 63 15 2 5 37 75 20 62 100 100 100 99
100 100 100 90 100 100 100 100 100 100 100 100 100 100 100 100 100 94 95 91 100 100 100 100 100 100 100 100 100 100 100 100 100 100 100 14 5 5 5 45 100 100 100 100 100 100 100
100 100 100 100 100 100 100 100 100 100 100 100 100 100 72 98 100 91 91 78 84 43 63 36 51 72 66 47 99 97 78 44 75 92 69 65 52 96 79 100 100 100 100 100 100 100 100
100 80 100 100 100 79 100 100 100 100 100 100 100 100 95 100 100 100 91 6 63 11 80 53 5 30 5 5 24 6 87 97 73 5 8 6 3 6 5 94 91 11 5 99 100 100 100
100 79 83 96 40 100 100 100 100 100 100 100 100 100 100 84 100 100 90 100 100 100 97 77 75 100 95 74 100 85 85 53 78 99 100 100 86 100 26 75 58 45 5 5 5 26 93
100 100 100 100 99 100 100 100 100 100 100 100 100 100 100 98 98 94 100 100 100 100 100 100 94 100 100 67 23 18 9 11 5 6 100 99 98 100 22 93 100 4 5 2 5 3 72
100 100 97 100 100 100 61 33 99 100 100 100 100 100 100 100 77 100 100 100 100 100 100 100 100 100 100 63 82 99 78 28 41 67 96 97 100 100 91 61 34 0 2 4 5 5 4
34 93 100 24 10 5 5 5 12 100 100 100 100 100 100 100 100 100 100 100 100 100 100 100 100 100 100 100 100 100 100 100 100 99 97 100 100 100 31 62 32 0 5 5 49 5 5
6 5 35 51 6 5 5 5 100 100 100 100 100 100 100 100 100 100 100 100 97 100 100 100 100 100 100 100 100 100 100 100 35 49 98 88 100 100 83 93 9 21 19 50 5 7 22
100 100 100 100 100 98 80 78 100 100 100 100 100 100 100 100 100 54 48 100 100 100 100 100 100 100 100 100 100 100 100 100 79 32 6 8 93 98 98 100 96 95 84 56 95 100 99
100 100 100 100 100 100 100 100 100 100 100 100 100 100 100 100 100 73 100 100 100 100 100 100 100 100 100 100 100 100 100 82 35 67 76 64 96 100 71 78 100 92 65 89 100 100 100